Regional Weather Roundup
Issued by NWS Memphis, TN

Home | Current Version | Previous Version | Text Only | Print | Product List | Glossary On
Versions: 1 2 3 4 5 6 7 8 9 10 11 12 13 14 15 16 17 18 19 20 21 22 23 24 25 26 27 28 29 30 31 32 33 34 35 36 37 38 39 40 41 42 43 44 45 46 47 48 49 50
000
ASUS44 KMEG 032310
RWRMEG
MEMPHIS CWA HOURLY WEATHER ROUNDUP
NATIONAL WEATHER SERVICE MEMPHIS TN
600 PM CDT WED JUN 03 2020

...WEST TENNESSEE...

CITY           SKY/WX    TMP DP  RH WIND       PRES   REMARKS
MEMPHIS INTL   PTSUNNY   85  67  54 W7        29.89S
NWS MEMPHIS      N/A     84 N/A N/A MISG        N/A
JACKSON        SUNNY     86  66  51 S7        29.89F
COVINGTON      CLOUDY    75  72  88 E6        29.90R
SOMERVILLE     PTSUNNY   75  70  83 CALM      29.89S
BOLIVAR        MOSUNNY   84  70  61 SE8       29.89S
LEXINGTON      PTSUNNY   84  68  58 S5        29.88F
SELMER         PTSUNNY   77  70  78 SW5       29.90F
DYERSBURG      MOSUNNY   85  69  58 W14       29.90R
UNION CITY     SUNNY     88  66  48 SW7       29.86R HX  90
PARIS          SUNNY     86  66  51 S7        29.87S
HUNTINGDON     PTSUNNY   86  66  51 S5        29.88S


...EASTERN ARKANSAS...

CITY           SKY/WX    TMP DP  RH WIND       PRES   REMARKS
JONESBORO      NOT AVBL
WEST MEMPHIS   PTSUNNY   84  69  60 W8        29.88S
BATESVILLE     LGT RAIN  73  72  96 S3        29.91F
NEWPORT        LGT RAIN  73  68  84 NW7       29.91F
WALNUT RIDGE   PTSUNNY   76  69  79 W8        29.90F
BLYTHEVILLE    LGT RAIN  80  65  59 SW9G18    29.89R
SEARCY         PTSUNNY   74  70  87 CALM      29.91F
STUTTGART      MOSUNNY   84  70  62 W8        29.90F
PINE BLUFF     PTSUNNY   83  67  58 VRB5      29.90S
MONTICELLO     PTSUNNY   88  68  51 CALM      29.89F HX  91


...NORTH MISSISSIPPI...

CITY           SKY/WX    TMP DP  RH WIND       PRES   REMARKS
TUPELO         MOSUNNY   83  73  72 SW5       29.91S
OXFORD         MOSUNNY   79  72  78 S6G12     29.92R
BATESVILLE     PTSUNNY   81  72  74 CALM      29.90R
TUNICA         LGT RAIN  81  70  69 NW13      29.91R
CLARKSDALE       N/A     90  66  45 CALM      29.89R HX  92
CORINTH        MOSUNNY   81  70  69 CALM      29.90F
GREENWOOD      TSTM      76  71  85 S12G21    29.91R
COLUMBUS       PTSUNNY   80  70  70 S5        29.92S
STARKVILLE     PTSUNNY   77  70  78 S3        29.94F
GOLDEN TRIANGL PTSUNNY   78  73  84 S9        29.93F


...SOUTHEAST MISSOURI...

CITY           SKY/WX    TMP DP  RH WIND       PRES   REMARKS
KENNETT        PTSUNNY   88  70  55 W16G23    29.87R HX  92
MALDEN         PTSUNNY   88  64  45 W12       29.88R
WEST PLAINS    SUNNY     71  66  84 SE6       29.93S
POPLAR BLUFF   TSTM      72  67  84 W14G30    29.93R
CAPE GIRARDEAU MOSUNNY   88  68  51 SW12      29.84R HX  91


...NORTHWEST ALABAMA...

CITY           SKY/WX    TMP DP  RH WIND       PRES   REMARKS
MUSCLE SHOALS  CLOUDY    88  68  51 S9        29.90F HX  91


...MIDDLE TENNESSEE...

CITY           SKY/WX    TMP DP  RH WIND       PRES   REMARKS
NASHVILLE      PTSUNNY   88  66  48 SW7       29.89F HX  90
CLARKSVILLE    MOSUNNY   86  65  49 SW8       29.87F
DICKSON        SUNNY     84  66  54 W8        29.89F
COLUMBIA       SUNNY     79  72  78 SW7       29.89S
LAWRENCEBURG   MOSUNNY   75  68  78 SE5       29.92F
LEWISBURG      SUNNY     77  70  78 CALM      29.91S


...WESTERN KENTUCKY...

CITY           SKY/WX    TMP DP  RH WIND       PRES   REMARKS
PADUCAH        MOSUNNY   87  65  47 SW5       29.85R
FORT CAMPBELL  MOSUNNY   86  63  46 SW10      29.86F


...CENTRAL ARKANSAS...

CITY           SKY/WX    TMP DP  RH WIND       PRES   REMARKS
LITTLE ROCK    PTSUNNY   77  71  82 E5        29.90F


SKY/WX REPORTED AS FAIR MEANS FEW OR NO CLOUDS BELOW
12 THOUSAND FEET.




USA.gov is the U.S. government's official web portal to all federal, state and local government web resources and services.